Tracking 29493 objects as of 8-Sep-2024
HD Live streaming from Space Station
objects crossing your sky now

FENGYUN 1C DEB

Track FENGYUN 1C DEB now!
10-day predictions


NORAD ID: 33656
Int'l Code: 1999-025DER
Perigee: 763.5 km
Apogee: 894.1 km
Inclination: 98.6 °
Period: 101.3 minutes
Semi major axis: 7199 km
RCS: 0.0162 m2 (small)
Launch date: May 10, 1999
Source: People's Republic of China (PRC)
Launch site: Taiyaun Space Center, China (TSC)

Note: This is SATELLITE DEBRIS
Your satellite tracking list
Your tracking list is empty




NASA's NSSDC Master Catalog

Two Line Element Set (TLE):
1 33656U 99025DER 24248.79702931  .00003576  00000-0  15985-2 0  9997
2 33656  98.5584 248.9282 0090671 298.2934  60.9117 14.21084087561156
Source of the keplerian elements: AFSPC